Dewpoint
61 60 60 61 62 63 64 65 65 64 64 64 64 64 64 64 65 66 66 65 66 66 66 66 66 65 66 66 66 66 65 65 65 66 64 64 63 64 64 64 64 64
59 59 60 61 61 63 63 64 65 64 63 64 64 64 64 64 64 64 65 66 65 65 65 66 65 65 65 65 65 65 65 65 65 65 65 65 64 64 64 64 65 64
58 59 59 60 61 63 64 64 64 65 64 63 64 64 65 65 64 64 64 64 65 66 66 66 64 65 66 65 65 64 64 64 64 65 65 65 65 65 65 65 64 65
58 59 59 59 60 62 63 64 63 63 64 64 63 64 64 65 65 64 64 64 65 65 65 64 65 66 65 64 64 64 64 64 65 65 64 65 65 65 64 64 64 64
57 58 58 58 59 60 62 63 63 63 62 63 64 64 63 64 65 65 64 64 64 64 64 64 64 64 64 64 64 64 64 65 65 65 64 64 64 64 64 64 63 63
57 56 56 57 57 58 59 61 61 62 62 63 63 63 63 63 63 63 64 63 65 64 64 64 64 64 64 64 64 64 64 64 65 64 64 64 64 64 64 64 63 63
56 57 57 56 57 57 58 58 59 60 61 62 63 63 63 64 63 62 62 63 62 63 63 64 64 63 62 63 64 64 64 64 64 64 64 64 64 64 64 64 62 62
56 56 56 56 56 56 56 56 56 58 59 60 62 63 63 62 62 63 64 64 62 64 64 64 64 63 63 64 64 63 63 63 63 63 62 63 63 62 62 62 62 62
55 55 55 56 55 55 55 55 55 56 57 58 58 60 62 63 63 62 62 63 62 63 62 62 63 63 64 64 63 63 63 63 63 62 63 62 62 62 62 62 62 61
53 54 54 55 54 54 54 54 54 55 55 56 57 58 59 61 62 62 62 62 62 62 63 62 63 63 64 64 64 64 63 62 62 62 62 62 63 63 63 63 62 62
53 52 52 53 53 53 53 53 53 53 54 54 55 55 56 58 61 63 63 63 61 61 62 62 62 63 63 63 64 64 63 62 62 62 63 63 63 63 63 62 62 61
51 51 51 51 51 52 52 52 52 52 52 53 53 54 55 56 57 58 60 61 63 62 61 61 63 62 62 62 62 63 63 64 63 63 63 62 63 63 62 63 62 62
50 50 51 51 51 51 51 50 50 51 51 51 52 52 52 53 54 55 57 59 61 63 61 62 62 63 63 63 63 63 62 62 63 63 62 63 63 63 63 63 62 62
50 50 50 50 50 49 49 50 49 49 50 50 50 50 51 51 51 52 54 55 56 59 62 62 62 62 62 62 61 62 63 63 63 62 63 63 63 63 63 63 63 62
49 49 49 49 49 48 48 48 48 49 49 49 49 49 50 49 49 49 50 51 53 55 58 61 61 59 52 52 58 62 63 62 62 63 63 62 62 63 63 63 62 62
47 48 47 48 48 48 47 48 48 48 48 48 48 48 48 48 47 48 48 48 50 51 54 57 54 48 46 44 43 49 59 62 62 63 63 63 62 62 63 62 61 61
47 47 47 47 47 47 48 47 47 48 47 47 47 47 47 47 47 46 46 46 47 48 50 54 51 45 41 39 40 41 50 59 61 61 62 62 62 62 62 62 63 62
46 46 46 46 46 46 46 46 47 47 47 46 46 46 46 46 46 45 45 45 46 45 47 50 50 44 39 39 39 39 42 50 58 61 60 61 62 62 62 62 61 61
46 45 45 45 45 46 46 46 46 46 46 46 45 46 45 45 45 45 44 44 44 44 44 46 48 42 39 39 39 38 39 43 53 59 62 62 61 62 63 62 61 60
45 45 45 45 45 45 45 45 45 45 46 46 45 45 45 44 44 44 44 44 44 43 43 44 46 42 39 39 38 38 38 40 50 56 60 61 61 62 63 63 62 61
44 44 44 44 44 44 45 44 44 45 45 45 44 44 43 43 43 43 43 43 43 43 43 43 44 40 39 38 38 38 38 40 52 56 59 61 62 62 62 62 62 62
43 43 43 43 43 43 43 43 44 44 44 44 44 43 43 43 43 43 42 42 42 42 42 42 42 40 39 38 38 38 38 47 54 56 59 61 61 60 59 59 59 61
41 41 42 42 42 42 42 43 43 43 44 44 43 42 42 42 42 42 42 41 42 42 42 42 42 41 39 38 38 38 40 47 53 57 59 60 60 58 54 52 50 52
40 40 40 41 41 41 42 42 42 42 43 44 43 42 42 41 41 41 41 41 41 41 42 42 42 42 40 39 38 38 40 46 51 57 59 59 58 56 54 52 49 46
40 40 39 39 38 38 39 40 41 41 42 43 42 42 42 41 41 40 40 41 41 41 43 42 42 42 40 39 39 38 40 45 53 56 54 54 52 51 50 50 49 46
38 39 40 38 37 38 38 39 39 40 41 41 41 40 40 41 41 40 40 40 41 40 40 41 41 41 41 39 39 39 39 43 49 50 51 50 49 49 48 47 47 46